MOLNIYA 1-56

Last updated on Nov. 11, 2019, 4:17 a.m. UTC

1 13890U 83019A   19314.72290733  .00001513  00000-0  00000+0 0  9992
2 13890  63.2477 152.4897 7011186 260.6322  19.8820  1.99895233267623
UTC
Height (km)
Latitude
Longitude
Inclination
Orbital Period
UTC large
Height (km)
Speed (km/s)
/
Latitude / Longitude
Inclination (degrees)
Orbital Period (minutes)
Azimuth
Elevation
Range (km)
Doppler Factor
iOS Compass Heading
iOS Angle

Next 30 passes for location: Hong Kong

Rise time Rise Azimuth (degrees) Set time Set Azimuth (degrees) Duration Max altitude (degrees)

No matching passes for this satellites